MORELOS 3               
1 40946U 15056A   19258.52668809 -.00000055  00000-0  00000-0 0  9990
2 40946   5.2547 328.0710 0002853 185.4787 277.1361  1.00272340 14558
ATLAS 5 CENTAUR R/B     
1 40947U 15056B   19257.93356880  .00000059  00000-0  00000-0 0  9991
2 40947  26.2297 107.9903 5892976 196.4619 130.5215  2.04874092 29582